Find Starlink 34912

NORAD ID: 65378 Int'l Des: 2025-190 Owner: SPXS Country: US Constellation: starlink operational
LEOCIRCULAR

实时位置

正在加载3D地球...

关于 Starlink 34912

正在加载描述...

即将过境

Passes for default location (London). Set your location on the main map for personalized predictions.

高度历史

Loading altitude history...

两行轨道根数

1 65378U 25190AD 26106.07632927 .00014395 00000-0 49707-3 0 9999
2 65378 53.1609 354.2014 0001174 101.2033 258.9100 15.30207317 35481
Epoch: Apr 16, 2026 • Age: 12 hours

当前状态

高度 478.4 km
速度 7.63 km/s
星下点 -10.68°S, 75.75°W
发射日期 Aug 28, 2025
运行时间 0.6 years
类型 internet

技术详情

分类 Payload
质量 575.00 kg
干质量 530.00 kg
总质量 575.00 kg
长度 0.30 m
直径 4.10 m
跨度 29.00 m
形状 Box + pan
制造商 SPXS
平台类型 Starlink V2MO
阶段状态 In Orbit
所有者/国家 SPXS/US

Most Searched